Wind_Speed
23 22 25 27 28 30 30 29 26 26 30 31 31 29 28 29 28 28 28 29 29 30 29 30 31 34 34
23 24 24 26 26 27 25 25 26 29 30 31 28 29 28 26 27 27 28 29 28 29 29 29 31 32 34
26 24 28 26 26 25 25 25 26 29 27 27 28 28 27 26 26 28 28 27 28 29 31 32 30 30 31
27 28 24 25 24 27 29 26 28 26 27 25 26 26 28 30 32 28 25 24 29 29 29 28 29 31 32
25 26 25 26 27 27 31 31 31 29 24 26 31 33 30 28 28 25 25 30 25 25 25 27 27 28 29
25 26 26 27 29 31 33 33 36 28 30 37 27 27 26 23 25 27 25 26 25 26 26 26 26 28 30
23 23 27 28 31 35 33 35 36 32 28 34 25 29 26 24 25 29 27 20 22 23 23 23 25 28 30
23 24 25 30 30 31 32 31 30 28 24 31 29 30 27 27 25 22 22 23 23 24 24 26 26 26 28
23 27 31 29 26 24 24 25 30 29 25 26 27 31 28 24 17 19 27 23 25 25 25 25 24 25 28
25 24 23 21 20 19 23 25 26 29 19 24 25 24 27 18 19 25 26 27 25 25 24 23 23 24 26
21 21 19 21 21 21 21 22 25 28 26 24 28 24 24 32 25 29 24 29 28 24 21 21 20 20 23
23 22 24 25 27 27 24 22 22 26 25 24 25 25 30 33 33 31 32 27 25 21 21 23 23 20 20
23 26 26 26 25 24 23 23 21 22 23 21 24 25 26 28 33 32 31 27 19 21 23 24 24 21 20
24 25 25 24 22 24 22 23 23 24 22 19 17 17 22 25 25 29 25 23 26 23 24 25 21 15 14
22 24 23 23 22 23 21 22 22 24 24 21 20 21 23 23 23 21 20 23 22 25 24 23 20 15 15
20 22 22 23 23 21 21 21 22 24 23 23 26 27 25 21 16 19 22 23 23 23 22 20 21 17 17
20 21 22 22 21 22 23 21 22 22 24 25 24 21 24 25 25 21 26 26 22 22 22 20 22 22 19
Wind_Direction
302 305 306 308 309 310 310 311 310 307 304 305 304 304 298 296 293 290 287 285 281 281 279 273 268 265 266
309 311 310 306 310 312 315 310 309 307 308 311 308 304 301 299 298 294 290 287 279 277 274 275 272 268 265
312 311 311 320 317 313 314 311 309 310 311 307 305 301 300 296 301 297 292 286 284 283 282 278 278 275 270
315 318 316 317 315 315 314 315 315 315 309 310 306 306 306 303 303 301 292 295 297 291 286 285 276 273 272
315 313 315 315 316 312 312 316 315 312 311 308 309 306 310 305 300 299 290 295 296 293 285 280 275 272 271
311 310 312 312 313 313 310 311 312 307 309 306 309 307 307 307 301 300 303 301 297 291 285 278 274 272 271
307 307 308 310 309 308 306 306 306 309 308 304 310 306 307 306 304 305 306 305 310 301 294 290 283 274 268
300 302 302 303 304 301 301 303 300 303 306 302 312 309 309 309 311 313 318 311 309 304 294 289 281 278 272
308 301 304 310 310 310 311 309 307 308 311 304 307 310 317 317 309 304 312 311 313 308 302 298 293 287 280
306 308 311 316 318 313 312 310 310 312 320 315 313 318 317 317 313 317 315 315 317 313 305 300 295 286 279
315 315 319 313 312 305 302 301 301 300 306 309 308 311 312 313 312 316 318 315 317 316 318 319 311 296 292
321 318 311 312 314 316 315 313 309 302 307 307 300 302 313 311 311 314 317 319 318 319 323 317 311 302 291
318 313 314 314 318 324 321 318 316 313 314 311 300 298 304 302 305 311 316 324 332 325 321 322 319 315 310
314 314 315 313 313 320 317 323 319 318 322 326 330 320 307 303 304 310 320 308 316 323 325 326 327 319 318
319 316 318 318 320 324 322 321 321 323 326 329 324 319 312 314 311 314 321 315 317 321 325 324 329 316 319
323 328 325 326 325 326 328 326 321 323 324 329 329 325 324 323 316 315 315 319 316 314 323 316 317 315 312
326 328 326 327 330 331 330 326 322 327 328 324 322 326 323 314 316 313 307 313 312 311 317 312 311 318 315
Height
1494 1490 1485 1480 1475 1471 1467 1462 1458 1454 1450 1446 1443 1440 1436 1432 1430 1428 1426 1425 1424 1422 1421 1421 1421 1421 1421
1488 1484 1480 1474 1468 1464 1461 1459 1454 1450 1444 1440 1436 1434 1430 1426 1423 1420 1417 1416 1414 1412 1411 1410 1410 1410 1411
1482 1479 1472 1468 1464 1461 1458 1453 1449 1444 1439 1435 1431 1427 1424 1420 1415 1413 1410 1407 1405 1403 1401 1400 1400 1399 1399
1477 1472 1469 1465 1461 1456 1451 1448 1442 1439 1434 1429 1424 1421 1416 1413 1409 1405 1402 1400 1397 1395 1392 1392 1391 1391 1391
1474 1470 1465 1461 1456 1452 1446 1441 1437 1432 1427 1423 1419 1414 1409 1405 1402 1399 1396 1393 1389 1387 1385 1384 1383 1382 1381
1471 1466 1461 1457 1452 1447 1442 1436 1428 1429 1422 1416 1415 1408 1404 1400 1397 1392 1388 1385 1382 1380 1377 1376 1375 1373 1372
1467 1463 1457 1453 1448 1440 1436 1432 1425 1420 1418 1410 1409 1403 1399 1395 1390 1385 1381 1378 1375 1373 1370 1368 1366 1364 1364
1462 1457 1453 1448 1442 1437 1430 1425 1420 1417 1414 1405 1402 1396 1392 1388 1384 1380 1376 1373 1370 1367 1364 1360 1358 1356 1354
1456 1451 1445 1440 1435 1430 1425 1420 1414 1411 1408 1402 1397 1390 1386 1382 1380 1376 1372 1368 1364 1361 1357 1353 1351 1348 1346
1449 1443 1438 1434 1431 1428 1422 1417 1412 1405 1404 1399 1393 1389 1380 1379 1376 1371 1367 1363 1359 1355 1351 1347 1344 1341 1338
1442 1437 1434 1431 1426 1422 1418 1414 1409 1402 1400 1396 1390 1386 1383 1373 1371 1367 1363 1358 1354 1348 1345 1341 1338 1336 1332
1437 1434 1430 1425 1420 1415 1411 1408 1404 1399 1394 1392 1386 1383 1377 1371 1366 1361 1357 1353 1349 1344 1342 1338 1333 1330 1327
1434 1430 1425 1420 1415 1410 1407 1403 1398 1394 1390 1386 1382 1378 1374 1369 1362 1357 1352 1347 1344 1342 1337 1333 1328 1324 1320
1430 1425 1420 1416 1411 1407 1401 1397 1392 1388 1384 1380 1377 1373 1369 1365 1360 1353 1350 1346 1342 1338 1333 1328 1324 1321 1318
1426 1421 1416 1411 1406 1402 1398 1393 1388 1383 1378 1375 1372 1369 1364 1359 1354 1350 1347 1343 1339 1335 1330 1325 1322 1319 1316
1422 1417 1412 1407 1403 1399 1395 1390 1385 1380 1376 1372 1367 1362 1357 1354 1352 1347 1344 1340 1336 1331 1327 1323 1319 1317 1313
1418 1414 1410 1405 1400 1396 1391 1387 1382 1378 1373 1369 1365 1360 1355 1349 1347 1346 1340 1336 1331 1327 1323 1320 1316 1312 1309